TimeEDT,TemperatureF,Dew PointF,Humidity,Sea Level PressureIn,VisibilityMPH,Wind Direction,Wind SpeedMPH,Gust SpeedMPH,PrecipitationIn,Events,Conditions,WindDirDegrees,DateUTC
12:24 AM,51.8,48.2,88,30.16,10.0,Calm,Calm,-,N/A,,Overcast,0,2012-10-09 04:24:00
12:53 AM,51.1,48.0,89,30.14,10.0,Calm,Calm,-,N/A,,Overcast,0,2012-10-09 04:53:00
1:53 AM,51.1,48.0,89,30.13,10.0,Calm,Calm,-,N/A,,Overcast,0,2012-10-09 05:53:00
2:53 AM,51.1,48.9,92,30.13,10.0,Calm,Calm,-,N/A,,Overcast,0,2012-10-09 06:53:00
4:32 AM,51.8,48.2,88,30.13,10.0,Calm,Calm,-,N/A,,Overcast,0,2012-10-09 08:32:00
4:53 AM,51.1,48.9,92,30.12,10.0,Calm,Calm,-,N/A,,Overcast,0,2012-10-09 08:53:00
5:53 AM,51.1,48.9,92,30.13,10.0,Calm,Calm,-,N/A,,Overcast,0,2012-10-09 09:53:00
7:50 AM,51.8,50.0,94,30.15,10.0,Calm,Calm,-,N/A,,Overcast,0,2012-10-09 11:50:00
7:53 AM,51.1,50.0,96,30.14,10.0,Calm,Calm,-,N/A,,Overcast,0,2012-10-09 11:53:00
8:03 AM,51.8,50.0,94,30.15,10.0,Calm,Calm,-,N/A,,Overcast,0,2012-10-09 12:03:00
8:31 AM,51.8,50.0,94,30.16,10.0,Calm,Calm,-,N/A,,Overcast,0,2012-10-09 12:31:00
8:45 AM,51.8,50.0,94,30.16,10.0,Calm,Calm,-,N/A,,Overcast,0,2012-10-09 12:45:00
8:53 AM,52.0,51.1,97,30.15,10.0,Calm,Calm,-,N/A,,Overcast,0,2012-10-09 12:53:00
9:23 AM,53.6,51.8,94,30.16,10.0,North,3.5,-,N/A,,Overcast,10,2012-10-09 13:23:00
9:30 AM,53.6,51.8,94,30.17,10.0,Calm,Calm,-,N/A,,Overcast,0,2012-10-09 13:30:00
9:38 AM,53.6,51.8,94,30.17,10.0,Calm,Calm,-,N/A,,Overcast,0,2012-10-09 13:38:00
9:53 AM,54.0,51.1,90,30.15,10.0,Calm,Calm,-,N/A,,Overcast,0,2012-10-09 13:53:00
10:29 AM,55.4,51.8,88,30.17,10.0,ESE,3.5,-,N/A,,Overcast,120,2012-10-09 14:29:00
10:53 AM,57.9,52.0,81,30.15,10.0,Calm,Calm,-,N/A,,Overcast,0,2012-10-09 14:53:00
11:29 AM,57.2,51.8,82,30.16,10.0,Calm,Calm,-,N/A,,Overcast,0,2012-10-09 15:29:00
11:53 AM,59.0,51.1,75,30.14,10.0,Calm,Calm,-,N/A,,Overcast,0,2012-10-09 15:53:00
12:53 PM,61.0,50.0,67,30.13,10.0,Calm,Calm,-,N/A,,Overcast,0,2012-10-09 16:53:00
1:53 PM,62.1,48.9,62,30.10,10.0,Calm,Calm,-,N/A,,Overcast,0,2012-10-09 17:53:00
2:53 PM,63.0,48.9,60,30.08,10.0,Calm,Calm,-,N/A,,Overcast,0,2012-10-09 18:53:00
3:53 PM,68.0,50.0,52,30.07,10.0,Variable,3.5,-,N/A,,Partly Cloudy,0,2012-10-09 19:53:00
4:53 PM,64.9,48.9,56,30.05,10.0,Calm,Calm,-,N/A,,Partly Cloudy,0,2012-10-09 20:53:00
5:53 PM,66.9,50.0,54,30.04,10.0,Calm,Calm,-,N/A,,Clear,0,2012-10-09 21:53:00
6:53 PM,60.1,54.0,80,30.04,10.0,Calm,Calm,-,N/A,,Clear,0,2012-10-09 22:53:00
7:53 PM,53.1,52.0,96,30.05,10.0,Calm,Calm,-,N/A,,Clear,0,2012-10-09 23:53:00
8:53 PM,52.0,51.1,97,30.07,9.0,Calm,Calm,-,N/A,,Clear,0,2012-10-10 00:53:00
9:53 PM,48.9,48.9,100,30.08,8.0,Calm,Calm,-,N/A,,Clear,0,2012-10-10 01:53:00
10:53 PM,48.9,48.9,100,30.08,6.0,Calm,Calm,-,N/A,,Clear,0,2012-10-10 02:53:00
11:53 PM,46.9,46.9,100,30.09,9.0,Calm,Calm,-,N/A,,Clear,0,2012-10-10 03:53:00